Regional Weather Roundup
Issued by NWS Sterling, VA

Home | Current Version | Previous Version | Text Only | Print | Product List | Glossary On
Versions: 1 2 3 4 5 6 7 8 9 10 11 12 13 14 15 16 17 18 19 20 21 22 23 24 25 26 27 28 29 30 31 32 33 34 35 36 37 38 39 40 41 42 43 44 45 46 47 48 49 50
000
ASUS41 KLWX 291810
RWRLWX

REGIONAL WEATHER ROUNDUP
NATIONAL WEATHER SERVICE BALTIMORE MD/WASHINGTON DC
200 PM EDT WED JUL 29 2015

Note: "FAIR" indicates few or no clouds below 12,000 feet
with no significant weather and/or obstructions to visibility.
 TC=TEMPERATURE CELSIUS

 * =Non NWS site. Station does not report precipitation (e.g. rain,
    snow, etc.), thunder, or fog.

DCZ001-MDZ009-015-VAZ040>042-051-053>054-291900-
WASHINGTON METRO

CITY           SKY/WX    TMP DP  RH WIND       PRES   REMARKS
WASHINGTON NAT PTSUNNY   90  75  61 S14       29.98F HX 100
DULLES         PTSUNNY   84  74  71 VRB7      29.99F HX  91
ANDREWS AFB    PTSUNNY   89  73  58 S12G22    29.98F HX  96
FT BELVOIR     PTSUNNY   88  75  65 S3        29.98F HX  98
QUANTICO       MOSUNNY   85  74  69 S12       29.99F HX  92
COLLEGE PARK*  CLOUDY    88  72  58 S6        29.98F HX  94
LEESBURG*      PTSUNNY   86  81  84 NW7       30.01F HX 102
MANASSAS*      PTSUNNY   84  75  74 S8        29.99F HX  92
GAITHERSBURG*  CLOUDY    82  73  74 CALM      30.04S

$$

MDZ006>007-011-014-291900-
BALTIMORE METRO

CITY           SKY/WX    TMP DP  RH WIND       PRES   REMARKS
BWI AIRPORT    RAIN      81  73  78 E7        29.99S
MD SCIENCE CTR   N/A     80  73  79 MISG      30.00S
ANNAPOLIS      LGT RAIN  79  75  87 S5        29.99F FOG
FORT MEADE*    PTSUNNY   82  72  69 S6        30.01F

$$

MDZ012-015-019>023-291900-
MARYLAND EASTERN SHORE

CITY           SKY/WX    TMP DP  RH WIND       PRES   REMARKS
OCEAN CITY     PTSUNNY   84  75  74 S7        30.01S HX  92
SALISBURY      MOSUNNY   86  74  67 SW9       30.00F HX  94
BAY BRIDGE AP*   N/A     84  72  65 S7        29.99F
CAMBRIDGE*     MOSUNNY   86  70  58 S7        29.99F HX  90
EASTON*        PTSUNNY   90  73  58 W10       30.03F HX  98

$$

MDZ017>025-291900-
SOUTHERN MARYLAND

CITY           SKY/WX    TMP DP  RH WIND       PRES   REMARKS
PATUXENT RIVER LGT RAIN  86  75  69 S8        30.00F HX  95
ST INIGOES     MOSUNNY   86  74  67 SW6       30.00F HX  94
LEONARDTOWN*   PTSUNNY   82  72  69 S8        30.02F

$$

MDZ003>005-291900-
NORTH CENTRAL MARYLAND

CITY           SKY/WX    TMP DP  RH WIND       PRES   REMARKS
FREDERICK*     PTSUNNY   88  75  66 CALM      30.02F HX  97
HAGERSTOWN APT PTSUNNY   84  70  62 S8        30.01F
WESTMINSTER*   PTSUNNY   84  75  74 W5        30.02F HX  92

$$

MDZ501>502-291900-
WESTERN MARYLAND

CITY           SKY/WX    TMP DP  RH WIND       PRES   REMARKS
OAKLAND*       MOSUNNY   79 N/A N/A CALM      30.10F
CUMBERLAND*    MOSUNNY   86  70  58 SE5       30.04F HX  90

$$

VAZ025>031-291900-
SHENANDOAH VALLEY

CITY           SKY/WX    TMP DP  RH WIND       PRES   REMARKS
WINCHESTER*    PTSUNNY   88  72  58 E6        30.00F HX  94
FRONT ROYAL*   FAIR      86  73  66 E5        29.99F HX  93
LURAY*         FAIR      90  72  55 S6        30.00F HX  96
NEW MARKET*    FAIR      86  72  61 SW7       29.97F HX  92
STAUNTON*      MOSUNNY   88  71  57 S6        30.04F HX  94
WAYNESBORO*    MOCLDY    82  74  75 S5        30.04F

$$

WVZ021-048>050-054>055-291900-
EASTERN WEST VIRGINIA PANHANDLE

CITY           SKY/WX    TMP DP  RH WIND       PRES   REMARKS
MARTINSBURG    PTSUNNY   85  71  63 NE3       30.00F HX  90
PETERSBURG*    PTSUNNY  N/A N/A N/A CALM      30.01F

$$

VAZ036>039-050-291900-
CENTRAL FOOTHILLS

CITY           SKY/WX    TMP DP  RH WIND       PRES   REMARKS
CHARLOTTESVILL PTSUNNY   84  74  71 SW12      30.00F HX  91
CULPEPER*      CLOUDY    83  74  74 S5        29.99F HX  90
ORANGE*        CLOUDY    84  75  74 S6        30.01F HX  92
GORDONSVILLE*  CLOUDY    82  75  78 S5        30.00F
WARRENTON*     FAIR      86  78  75 S6        29.99F HX  99

$$

VAZ055>057-291900-
NORTH AND CENTRAL PIEDMONT

CITY           SKY/WX    TMP DP  RH WIND       PRES   REMARKS
FREDERICKSBRG* MOSUNNY   89  74  62 S12       29.99F HX  98
STAFFORD*      MOSUNNY   85  73  67 SW6       30.04S HX  92

$$

NCZ024-NYZ072-PAZ021-071-VAZ022-071-291900-
OTHER REGIONAL OBSERVATIONS

CITY           SKY/WX    TMP DP  RH WIND       PRES   REMARKS
NEW YORK CITY  MOSUNNY   92  64  39 CALM      29.98F HX  93
PHILADELPHIA   PTSUNNY   91  70  49 W10       29.98F HX  96
PITTSBURGH     CLOUDY    88  68  51 SW6       29.99S HX  91
ROANOKE        PTSUNNY   86  70  58 VRB3      30.04F HX  90
RICHMOND       CLOUDY    82  73  74 W8        30.02F
RALEIGH        PTSUNNY   87  70  56 VRB6      30.02F HX  92

$$

ANZ530>537-291900-
MARINE OBSERVATIONS

STATION/POSITION TIME  TEMP    WIND        PRES
                       AIR SEA DIR/SP/G
                 (UTC) (F)     (DEG/KT/KT) (MB)
THOMAS PT LIGHT  NOT AVBL
BALT KEY BRIDGE  1700   82     110/  9/ 10 1015.8F
COVE POINT       1700   81     190/ 11/ 13 1016.9F
LEWISETTA        1700   85 84  220/  6/  9 1016.0F
SOLOMONS ISLAND  1700      83                N/A

$$



USA.gov is the U.S. government's official web portal to all federal, state and local government web resources and services.